[[{"header":{"parameterUnit":"m.s-1","parameterCategory":1,"la1":30.2991,"la2":30.254,"lo1":-89.0895,"lo2":-89.0444,"dy":0.0017,"dx":0.0017,"nx":28,"ny":28,"refTime":"2023-08-27T09:00:00:Z","depth":0,"parameterNumber":2,"parameterNumberName":"U-component_of_WINDS"},"data":[0,0,0,0,0,0,0,0,0,0,0,0,0,0,0,0,0,0,0,0,0,0,0,0,0,0,0,0,0,0,0,0,0,0,0,0,0,0,0,0,0,0,0,0,0,0,0,0,0,0,0,0,0,0,0,0,0,0,0.0659,0.0658,0,0.0546,0.0545,0.0544,0.0445,0.0444,0.0443,0.0442,0.0328,0.0326,0.0324,0,0,0,0,0,0,0,0,0,0,0,0,0,0.0795,0.0793,0.066,0.0658,0.0657,0.0546,0.0545,0.0543,0.0445,0.0444,0.0443,0.0441,0.0328,0.0326,0.0324,0,0,0,0,0,0,0,0,0,0,0,0,0,0.0714,0.0792,0.066,0.0595,0.0588,0.0547,0.0545,0.0543,0.0446,0.0444,0.0442,0.0441,0.0329,0.0326,0.0323,0.0339,0,0,0.0314,0.0313,0,0,0,0,0,0,0,0,0.0719,0.071,0.0606,0.0599,0.0591,0.0508,0.0551,0.0475,0.0446,0.05,0.0442,0.044,0.0389,0.0381,0.0364,0.0333,0.0328,0.0314,0.0312,0.0311,0.031,0,0,0,0,0,0,0,0.0725,0.0714,0.0615,0.0604,0.0595,0.0572,0.0559,0.0536,0.0455,0.0495,0.0487,0.0475,0.0385,0.0367,0.036,0.0327,0.0314,0.0311,0.031,0.0308,0.0307,0.0309,0,0,0,0,0,0,0.074,0.0719,0.0618,0.0611,0.0652,0.0571,0.0556,0.0537,0.0455,0.0441,0.0477,0.0471,0.0373,0.0364,0.0356,0.0371,0.0311,0.0308,0.0306,0.0305,0.0308,0.0309,0,0,0,0,0,0,0.0743,0.0732,0.0623,0.0663,0.0648,0.0571,0.0549,0.0535,0.0517,0.0442,0.0427,0.0473,0.0371,0.036,0.0344,0.0366,0.0307,0.0304,0.0303,0.0306,0.0308,0.04,0,0,0,0,0,0,0.0748,0.0734,0.0738,0.0664,0.0646,0.0612,0.055,0.0534,0.0512,0.0503,0.0434,0.0421,0.0369,0.0349,0.0342,0.036,0.0302,0.0301,0.0305,0.0308,0.0395,0.0405,0.0415,0,0,0,0,0,0.0753,0.0767,0.0738,0.0727,0.0649,0.0614,0.0603,0.0543,0.0514,0.0518,0.047,0.0423,0.0365,0.0349,0.0339,0.0357,0.0299,0.0304,0.0307,0.039,0.0403,0.0414,0,0,0,0,0,0,0.0845,0.0756,0.0723,0.0714,0.0672,0.0597,0.06,0.0558,0.0523,0.0517,0.0444,0.0429,0.0422,0.0388,0.0372,0.037,0.0326,0.0328,0.0392,0.0404,0.0414,0.0423,0.0299,0,0,0,0,0,0.0864,0.0842,0.0766,0.0766,0.0747,0.0678,0.066,0.0617,0.0571,0.0553,0.0503,0.0461,0.0434,0.0417,0.0387,0.0389,0.0374,0.0397,0.0407,0.0416,0.0419,0.0421,0.0432,0.0322,0.0322,0.0322,0,0,0.0904,0.0853,0.0843,0.0783,0.0745,0.0726,0.0663,0.0644,0.0629,0.055,0.0532,0.0496,0.0444,0.0438,0.0433,0.0409,0.0446,0.0421,0.0428,0.0427,0.0426,0.0437,0.0446,0.0325,0.0325,0.0324,0,0,0.0966,0.0924,0.0921,0.0885,0.083,0.0784,0.0784,0.0715,0.0688,0.0669,0.061,0.0593,0.0545,0.0512,0.0489,0.0543,0.05,0.0535,0.0587,0.0591,0.0599,0.0607,0.0628,0.0637,0.0538,0.0539,0.0539,0,0.1023,0.099,0.0925,0.091,0.0887,0.0814,0.0812,0.078,0.0718,0.0705,0.0679,0.0621,0.058,0.0568,0.0581,0.0564,0.0563,0.0543,0.0603,0.061,0.0616,0.0636,0.0644,0.0544,0.0543,0.0542,0.0542,0,0.1063,0.1042,0.1046,0.0989,0.0965,0.0957,0.0893,0.0877,0.0838,0.0796,0.078,0.073,0.069,0.0683,0.0643,0.0666,0.0654,0.0616,0.0571,0.0632,0.065,0.0657,0.0551,0.0549,0.0547,0.0546,0,0,0.1179,0.1088,0.1091,0.1065,0.1,0.0983,0.0973,0.0934,0.0924,0.0884,0.0876,0.0839,0.0805,0.0779,0.0736,0.0738,0.0788,0.0701,0.0699,0.0721,0.0814,0.0843,0.0853,0.0759,0.076,0.0761,0.0819,0,0.1232,0.1209,0.1151,0.1147,0.1128,0.1061,0.1052,0.1013,0.0974,0.0954,0.0911,0.0887,0.0843,0.0828,0.0827,0.0782,0.0806,0.0777,0.0752,0.0752,0.0769,0.0862,0.0892,0.0949,0.0825,0.0826,0.0827,0,0.129,0.1256,0.125,0.1189,0.1179,0.1172,0.1134,0.1115,0.107,0.1042,0.1015,0.0967,0.0955,0.0913,0.0897,0.0879,0.0865,0.0843,0.0843,0.084,0.0794,0.0863,0.0965,0.0975,0.0837,0.0836,0.0835,0,0.1378,0.1331,0.1322,0.1302,0.123,0.1228,0.1198,0.1151,0.1133,0.11,0.1087,0.1054,0.1036,0.1012,0.0957,0.0931,0.0949,0.0901,0.0927,0.0929,0.0934,0.0935,0.1038,0.0923,0.0923,0.0923,0.0923,0,0.1444,0.1444,0.1361,0.1355,0.1354,0.1289,0.129,0.1254,0.1214,0.1202,0.1141,0.1131,0.1059,0.1042,0.0999,0.0994,0.0986,0.0965,0.0954,0.0971,0.0974,0.0962,0.0957,0.0925,0.0925,0.0924,0.0924,0,0.1542,0.1486,0.1472,0.1407,0.139,0.1393,0.1337,0.133,0.1289,0.1275,0.1268,0.1204,0.118,0.1124,0.1085,0.1057,0.1064,0.1042,0.108,0.1073,0.1103,0.1102,0.1203,0.1215,0.1091,0.1093,0.1094,0,0.1589,0.1587,0.1522,0.151,0.1483,0.1463,0.1445,0.1382,0.1366,0.1317,0.1317,0.1289,0.1264,0.123,0.1181,0.1152,0.1131,0.1169,0.1126,0.1145,0.1134,0.1136,0.1137,0.1178,0.118,0.1181,0.1182,0,0.1678,0.1651,0.1627,0.1594,0.1574,0.1545,0.1512,0.1506,0.1436,0.1421,0.1397,0.1378,0.134,0.1314,0.1279,0.1249,0.1206,0.1196,0.1201,0.1219,0.1242,0.1233,0.1107,0.1194,0.1193,0.1192,0.1192,0.1191,0.1752,0.1749,0.1704,0.168,0.165,0.1622,0.1613,0.1572,0.1551,0.1515,0.148,0.1461,0.1419,0.1367,0.1341,0.1326,0.1303,0.131,0.1311,0.1315,0.1324,0.1244,0.1319,0.1319,0.1318,0.1318,0.1318,0,0.1841,0.1809,0.1788,0.1745,0.1727,0.1688,0.1651,0.1639,0.1622,0.1587,0.1564,0.1539,0.1514,0.1464,0.1436,0.1434,0.1414,0.1429,0.1429,0.1424,0.1344,0.1344,0.1446,0.1446,0.1446,0.1446,0.1446,0.1446,0.1884,0.1878,0.1847,0.1826,0.1794,0.1775,0.1758,0.1733,0.1705,0.1679,0.1659,0.1626,0.1586,0.1555,0.1532,0.1518,0.1512,0.1534,0.1514,0.1441,0.1429,0.1417,0.1417,0.1533,0.1533,0.1595,0.1596,0.1596]},{"header":{"parameterUnit":"m.s-1","parameterCategory":1,"la1":30.2991,"la2":30.254,"lo1":-89.0895,"lo2":-89.0444,"dy":0.0017,"dx":0.0017,"nx":28,"ny":28,"refTime":"2023-08-27T09:00:00:Z","depth":0,"parameterNumber":3,"parameterNumberName":"V-component_of_WINDS"},"data":[0,0,0,0,0,0,0,0,0,0,0,0,0,0,0,0,0,0,0,0,0,0,0,0,0,0,0,0,0,0,0,0,0,0,0,0,0,0,0,0,0,0,0,0,0,0,0,0,0,0,0,0,0,0,0,0,0,0,-0.2279,-0.2279,0,-0.2272,-0.2272,-0.2272,-0.2337,-0.2339,-0.2341,-0.2343,-0.2331,-0.2329,-0.2327,0,0,0,0,0,0,0,0,0,0,0,0,0,-0.2344,-0.2342,-0.2279,-0.2279,-0.2279,-0.2272,-0.2272,-0.2272,-0.2337,-0.2339,-0.2341,-0.2343,-0.2332,-0.2329,-0.2327,0,0,0,0,0,0,0,0,0,0,0,0,0,-0.2324,-0.2342,-0.2279,-0.231,-0.2313,-0.2272,-0.2272,-0.2272,-0.2336,-0.2339,-0.2342,-0.2344,-0.2332,-0.2329,-0.2327,-0.2253,0,0,-0.2317,-0.2316,0,0,0,0,0,0,0,0,-0.2325,-0.2321,-0.2306,-0.2308,-0.2311,-0.2308,-0.2291,-0.2265,-0.2336,-0.2327,-0.2343,-0.2346,-0.2321,-0.2319,-0.2312,-0.2253,-0.2252,-0.2317,-0.2315,-0.2314,-0.2313,0,0,0,0,0,0,0,-0.2326,-0.2322,-0.2276,-0.2305,-0.2309,-0.2323,-0.2324,-0.2286,-0.2309,-0.2328,-0.2333,-0.2332,-0.2323,-0.2314,-0.2312,-0.2252,-0.2317,-0.2314,-0.2313,-0.2311,-0.2131,-0.2129,0,0,0,0,0,0,-0.2324,-0.2323,-0.2276,-0.2276,-0.2325,-0.232,-0.232,-0.2306,-0.2309,-0.2313,-0.2329,-0.2335,-0.2318,-0.2315,-0.2312,-0.2225,-0.2314,-0.2311,-0.2309,-0.2134,-0.2131,-0.2128,0,0,0,0,0,0,-0.2325,-0.2319,-0.2276,-0.2301,-0.2296,-0.2316,-0.23,-0.2305,-0.2296,-0.231,-0.2314,-0.2317,-0.232,-0.2316,-0.2267,-0.2225,-0.231,-0.2307,-0.2138,-0.2133,-0.2129,-0.2051,0,0,0,0,0,0,-0.2327,-0.2319,-0.2293,-0.23,-0.2295,-0.2233,-0.2297,-0.2303,-0.2292,-0.2299,-0.2299,-0.2302,-0.2322,-0.2271,-0.2264,-0.2223,-0.2305,-0.2142,-0.2136,-0.2131,-0.2057,-0.2044,-0.2033,0,0,0,0,0,-0.2329,-0.227,-0.2291,-0.2285,-0.2262,-0.2231,-0.2228,-0.2253,-0.2288,-0.226,-0.2269,-0.2302,-0.2232,-0.2266,-0.2258,-0.2215,-0.2144,-0.2137,-0.2131,-0.2063,-0.2047,-0.2034,0,0,0,0,0,0,-0.2256,-0.2272,-0.2295,-0.2237,-0.2232,-0.2242,-0.2208,-0.2236,-0.222,-0.2227,-0.2258,-0.2257,-0.2203,-0.2205,-0.2243,-0.2144,-0.2194,-0.2185,-0.2145,-0.213,-0.2118,-0.2118,-0.2302,0,0,0,0,0,-0.2234,-0.2208,-0.2223,-0.217,-0.2167,-0.2188,-0.2175,-0.2195,-0.2191,-0.2189,-0.2194,-0.2187,-0.2164,-0.2147,-0.2126,-0.2059,-0.2059,-0.2025,-0.2013,-0.2003,-0.1995,-0.1958,-0.1943,-0.2105,-0.2106,-0.2106,0,0,-0.2186,-0.2192,-0.2174,-0.2156,-0.2155,-0.2126,-0.2185,-0.2153,-0.2131,-0.2183,-0.2138,-0.2141,-0.2136,-0.2077,-0.2051,-0.2077,-0.195,-0.1995,-0.1987,-0.1984,-0.1949,-0.1934,-0.192,-0.2101,-0.2102,-0.2103,0,0,-0.2085,-0.2088,-0.2043,-0.2041,-0.2039,-0.2053,-0.2043,-0.2048,-0.2053,-0.2008,-0.2046,-0.2021,-0.198,-0.1974,-0.1965,-0.1862,-0.1891,-0.1854,-0.1791,-0.1754,-0.1741,-0.173,-0.1691,-0.1677,-0.1846,-0.1846,-0.1846,0,-0.2026,-0.1986,-0.2017,-0.1982,-0.1972,-0.2019,-0.1974,-0.197,-0.196,-0.1951,-0.198,-0.193,-0.1929,-0.1869,-0.1844,-0.1836,-0.1824,-0.1853,-0.1741,-0.173,-0.172,-0.1683,-0.1669,-0.1842,-0.1842,-0.1843,-0.1843,0,-0.1912,-0.1884,-0.1848,-0.1839,-0.1826,-0.1785,-0.1809,-0.1791,-0.1813,-0.1823,-0.1776,-0.1778,-0.1757,-0.1745,-0.1765,-0.1687,-0.1703,-0.1736,-0.1786,-0.1699,-0.1665,-0.1651,-0.1835,-0.1837,-0.1838,-0.1839,0,0,-0.1763,-0.1772,-0.1759,-0.1754,-0.1756,-0.1733,-0.1695,-0.1677,-0.166,-0.1652,-0.1619,-0.1583,-0.1614,-0.1604,-0.1625,-0.1593,-0.1509,-0.163,-0.163,-0.1605,-0.1421,-0.1394,-0.1377,-0.1529,-0.1526,-0.1524,-0.142,0,-0.1663,-0.1599,-0.1626,-0.1558,-0.1531,-0.1576,-0.1542,-0.1538,-0.1548,-0.1525,-0.1535,-0.1508,-0.1552,-0.1546,-0.1517,-0.1525,-0.1472,-0.1533,-0.1496,-0.1494,-0.1494,-0.136,-0.1332,-0.1233,-0.1407,-0.1405,-0.1404,0,-0.1537,-0.1525,-0.1455,-0.1461,-0.145,-0.142,-0.1404,-0.1383,-0.1379,-0.1388,-0.1377,-0.1404,-0.1365,-0.1417,-0.1363,-0.1404,-0.1391,-0.1393,-0.1389,-0.1385,-0.1442,-0.135,-0.1203,-0.1187,-0.1383,-0.1385,-0.1386,0,-0.1433,-0.1399,-0.1353,-0.1348,-0.1354,-0.1331,-0.1332,-0.1331,-0.1318,-0.1305,-0.1296,-0.1278,-0.1267,-0.1252,-0.1272,-0.1309,-0.1214,-0.1268,-0.1218,-0.1217,-0.1194,-0.1195,-0.1041,-0.119,-0.119,-0.119,-0.119,0,-0.1317,-0.1272,-0.1306,-0.1277,-0.1227,-0.1258,-0.1208,-0.1214,-0.1213,-0.1184,-0.1223,-0.1195,-0.1225,-0.12,-0.1216,-0.1168,-0.1163,-0.1168,-0.1172,-0.1163,-0.1162,-0.1152,-0.1159,-0.1186,-0.1187,-0.1188,-0.1188,0,-0.1191,-0.1213,-0.1164,-0.1174,-0.1176,-0.1138,-0.1146,-0.1119,-0.1131,-0.1095,-0.1088,-0.1107,-0.1079,-0.1099,-0.1072,-0.1083,-0.1018,-0.1033,-0.1019,-0.1022,-0.097,-0.0974,-0.0803,-0.0781,-0.0946,-0.0944,-0.0943,0,-0.1114,-0.1081,-0.1087,-0.1072,-0.1071,-0.1046,-0.1033,-0.1062,-0.1047,-0.104,-0.1013,-0.0989,-0.0971,-0.0925,-0.0935,-0.0913,-0.0927,-0.0868,-0.0923,-0.0915,-0.0923,-0.0924,-0.092,-0.0856,-0.0854,-0.0853,-0.0851,0,-0.0975,-0.0988,-0.0969,-0.0953,-0.0937,-0.0925,-0.0917,-0.0902,-0.0931,-0.0912,-0.0885,-0.0871,-0.0843,-0.0818,-0.0801,-0.0801,-0.0829,-0.0835,-0.0821,-0.081,-0.0803,-0.0804,-0.0986,-0.0838,-0.0839,-0.084,-0.0841,-0.0841,-0.087,-0.0842,-0.0842,-0.0819,-0.0816,-0.0808,-0.0782,-0.0792,-0.077,-0.0751,-0.0769,-0.0736,-0.0732,-0.0712,-0.0708,-0.0682,-0.0705,-0.0687,-0.0682,-0.0676,-0.0668,-0.0809,-0.0679,-0.0679,-0.068,-0.068,-0.068,0,-0.0731,-0.0734,-0.0713,-0.07,-0.0682,-0.0714,-0.0706,-0.0687,-0.0658,-0.0653,-0.0635,-0.0603,-0.0579,-0.0588,-0.0566,-0.0543,-0.0555,-0.0536,-0.0536,-0.0535,-0.0649,-0.0661,-0.0526,-0.0526,-0.0526,-0.0526,-0.0526,-0.0526,-0.0657,-0.061,-0.0622,-0.0574,-0.0577,-0.0546,-0.0538,-0.053,-0.0526,-0.0489,-0.0469,-0.0476,-0.0476,-0.0454,-0.0433,-0.0436,-0.0425,-0.04,-0.0407,-0.0513,-0.0528,-0.0542,-0.0554,-0.0398,-0.0398,-0.0296,-0.0295,-0.0294]}]]